DW8463 Weather Reports


time (UTC)temp
C
wind
direction
speed
KPH
gust
KPH
rain 1hr
cm
rain 24hr
cm
rain mn
cm
humidity
%
barometer
mb
20260901165306 28 250 1.6 9.7 0.00 0.00 0.00 63 1012.6
20260901164804 28 263 3.2 8.0 0.00 0.00 0.00 63 1012.6
20260901164304 28 331 4.8 11.3 0.00 0.00 0.00 63 1012.7
20260901163803 28 302 1.6 4.8 0.00 0.00 0.00 63 1012.8
20260901163304 28 314 1.6 8.0 0.00 0.00 0.00 63 1012.9
20260901162803 27 298 1.6 12.9 0.00 0.00 0.00 63 1012.9
20260901162306 27 345 4.8 9.7 0.00 0.00 0.00 63 1012.8
20260901161803 27 344 1.6 11.3 0.00 0.00 0.00 63 1012.8
20260901161303 27 330 4.8 9.7 0.00 0.00 0.00 63 1012.8
20260901160803 27 22 4.8 12.9 0.00 0.00 0.00 63 1012.8
20260901155804 27 28 3.2 4.8 0.00 0.00 0.00 73 1012.8
20260901155306 27 44 3.2 9.7 0.00 0.00 0.00 73 1012.7
20260901154303 26 335 1.6 4.8 0.00 0.00 0.00 73 1012.7
20260901153803 26 308 1.6 4.8 0.00 0.00 0.00 73 1012.6
20260901153303 26 19 3.2 8.0 0.00 0.00 0.00 73 1012.6
20260901152803 26 342 3.2 9.7 0.00 0.00 0.00 73 1012.6
20260901152305 26 359 1.6 8.0 0.00 0.00 0.00 73 1012.5
20260901151803 26 330 8.0 12.9 0.00 0.00 0.00 73 1012.6
20260901151304 25 13 3.2 4.8 0.00 0.00 0.00 73 1012.6
20260901150804 25 314 6.4 8.0 0.00 0.00 0.00 73 1012.6
20260901150303 25 281 1.6 4.8 0.00 0.00 0.00 76 1012.7
20260901145803 24 294 1.6 4.8 0.00 0.00 0.00 92 1012.8
20260901144303 23 221 0.0 0.0 0.00 0.00 0.00 92 1012.8
20260901143803 23 218 1.6 4.8 0.00 0.00 0.00 92 1012.9
20260901143303 22 316 0.0 0.0 0.00 0.00 0.00 92 1012.9
20260901142803 22 316 0.0 1.6 0.00 0.00 0.00 92 1012.9
20260901142306 22 316 1.6 4.8 0.00 0.00 0.00 92 1012.9
20260901141803 21 316 1.6 3.2 0.00 0.00 0.00 92 1013.0
20260901141303 21 316 0.0 3.2 0.00 0.00 0.00 92 1012.9
20260901140803 20 0 0.0 4.8 0.00 0.00 0.00 92 1012.9
20260901140304 20 340 1.6 4.8 0.00 0.00 0.00 92 1012.9
20260901135803 19 340 0.0 1.6 0.00 0.00 0.00 100 1013.0
20260901135305 19 346 3.2 4.8 0.00 0.00 0.00 100 1013.1
20260901134803 18 286 1.6 4.8 0.00 0.00 0.00 100 1013.1
20260901133803 18 286 0.0 0.0 0.00 0.00 0.00 100 1012.8
20260901133304 18 286 0.0 0.0 0.00 0.00 0.00 100 1012.8
20260901132307 17 286 0.0 0.0 0.00 0.00 0.00 100 1012.8
20260901131804 17 286 0.0 1.6 0.00 0.00 0.00 100 1012.8
20260901131303 17 286 0.0 0.0 0.00 0.00 0.00 100 1012.8
20260901130804 17 0 0.0 0.0 0.00 0.00 0.00 100 1012.7
20260901125803 16 0 0.0 1.6 0.00 0.00 0.00 100 1012.7
20260901125308 16 0 0.0 1.6 0.00 0.00 0.00 100 1012.7
20260901124803 16 0 0.0 0.0 0.00 0.00 0.00 100 1012.6
20260901124304 16 0 0.0 0.0 0.00 0.00 0.00 100 1012.6
20260901123803 16 0 0.0 0.0 0.00 0.00 0.00 100 1012.6
20260901123304 16 0 0.0 0.0 0.00 0.00 0.00 100 1012.6
20260901122803 16 0 0.0 0.0 0.00 0.00 0.00 100 1012.6
20260901121803 16 0 0.0 0.0 0.00 0.00 0.00 100 1012.5
20260901121303 16 0 0.0 0.0 0.00 0.00 0.00 100 1012.4
20260901120804 15 0 0.0 0.0 0.00 0.00 0.00 100 1012.4
20260901120303 15 0 0.0 0.0 0.00 0.00 0.00 100 1012.3
20260901115803 15 0 0.0 0.0 0.00 0.00 0.00 100 1012.3
20260901115306 15 0 0.0 0.0 0.00 0.00 0.00 100 1012.3
20260901114303 16 0 0.0 0.0 0.00 0.00 0.00 100 1012.2
20260901113803 16 0 0.0 0.0 0.00 0.00 0.00 100 1012.1
20260901113304 15 0 0.0 0.0 0.00 0.00 0.00 100 1012.1
20260901112306 15 0 0.0 0.0 0.00 0.00 0.00 100 1011.9
20260901111303 15 0 0.0 0.0 0.00 0.00 0.00 100 1011.9
20260901110803 15 0 0.0 0.0 0.00 0.00 0.00 100 1011.8
20260901110304 15 0 0.0 0.0 0.00 0.00 0.00 100 1011.8
20260901104804 15 0 0.0 0.0 0.00 0.00 0.00 100 1012.0
20260901104303 16 0 0.0 0.0 0.00 0.00 0.00 100 1012.0
20260901103803 16 0 0.0 0.0 0.00 0.00 0.00 100 1011.9
20260901103304 16 0 0.0 0.0 0.00 0.00 0.00 100 1011.8
20260901102803 16 0 0.0 0.0 0.00 0.00 0.00 100 1011.9
20260901102306 16 0 0.0 1.6 0.00 0.00 0.00 100 1011.9
20260901101804 16 0 0.0 0.0 0.00 0.00 0.00 100 1012.0
20260901101303 16 0 0.0 0.0 0.00 0.00 0.00 100 1011.8
20260901100803 16 0 0.0 0.0 0.00 0.00 0.00 100 1011.8
20260901100304 16 0 0.0 0.0 0.00 0.00 0.00 100 1011.7
20260901095803 16 0 0.0 0.0 0.00 0.00 0.00 100 1011.7
20260901095306 16 0 0.0 0.0 0.00 0.00 0.00 100 1011.6
20260901094803 16 0 0.0 0.0 0.00 0.00 0.00 100 1011.6
20260901094304 16 0 0.0 0.0 0.00 0.00 0.00 100 1011.6
20260901093803 16 0 0.0 0.0 0.00 0.00 0.00 100 1011.6
20260901093303 16 0 0.0 0.0 0.00 0.00 0.00 100 1011.5
20260901092803 16 0 0.0 0.0 0.00 0.00 0.00 100 1011.5
20260901092305 16 0 0.0 0.0 0.00 0.00 0.00 100 1011.5
20260901091804 16 0 0.0 0.0 0.00 0.00 0.00 100 1011.3
20260901091303 16 0 0.0 0.0 0.00 0.00 0.00 100 1011.3
20260901090303 16 0 0.0 0.0 0.00 0.00 0.00 100 1011.4
20260901085803 17 0 0.0 0.0 0.00 0.00 0.00 100 1011.4
20260901085305 17 0 0.0 0.0 0.00 0.00 0.00 100 1011.5
20260901084303 17 0 0.0 0.0 0.00 0.00 0.00 100 1011.3
20260901083803 17 0 0.0 0.0 0.00 0.00 0.00 100 1011.3
20260901083303 17 0 0.0 0.0 0.00 0.00 0.00 100 1011.2
20260901082803 17 0 0.0 0.0 0.00 0.00 0.00 100 1011.2
20260901082306 17 0 0.0 0.0 0.00 0.00 0.00 100 1011.2
20260901081803 17 0 0.0 0.0 0.00 0.00 0.00 100 1011.3
20260901081303 17 0 0.0 0.0 0.00 0.00 0.00 100 1011.3
20260901080803 17 0 0.0 0.0 0.00 0.00 0.00 100 1011.3
20260901080304 17 0 0.0 0.0 0.00 0.00 0.00 100 1011.3
20260901075803 17 0 0.0 0.0 0.00 0.00 0.00 100 1011.3
20260901075307 17 0 0.0 0.0 0.00 0.00 0.00 100 1011.5
20260901074304 18 0 0.0 0.0 0.00 0.00 0.00 100 1011.5
20260901073303 18 0 0.0 0.0 0.00 0.00 0.00 100 1011.7
20260901072803 18 0 0.0 0.0 0.00 0.00 0.00 100 1011.8
20260901072308 18 0 0.0 0.0 0.00 0.00 0.00 100 1011.8
20260901071804 18 0 0.0 0.0 0.00 0.00 0.00 100 1011.9
20260901071304 18 0 0.0 0.0 0.00 0.00 0.00 100 1011.8
20260901070804 18 273 0.0 4.8 0.00 0.00 0.00 100 1011.8
20260901070303 18 272 0.0 1.6 0.00 0.00 0.00 100 1011.7
20260901065305 18 272 0.0 1.6 0.00 0.00 0.00 91 1011.8
20260901063803 18 274 0.0 0.0 0.00 0.00 0.00 91 1011.8
20260901062803 18 274 0.0 1.6 0.00 0.00 0.00 91 1011.8
20260901062309 18 273 0.0 4.8 0.00 0.00 0.00 91 1011.8
20260901061803 18 272 1.6 4.8 0.00 0.00 0.00 91 1011.8
20260901061304 18 263 0.0 1.6 0.00 0.00 0.00 91 1011.8
20260901060803 18 332 0.0 0.0 0.00 0.00 0.00 91 1011.7
20260901060304 18 320 0.0 0.0 0.00 0.00 0.00 91 1011.7
20260901055803 18 304 0.0 0.0 0.00 0.00 0.00 92 1011.6
20260901055306 18 274 0.0 0.0 0.00 0.00 0.00 92 1011.5
20260901054804 18 316 0.0 0.0 0.00 0.00 0.00 92 1011.5
20260901054303 18 278 0.0 0.0 0.00 0.00 0.00 92 1011.5
20260901053804 18 280 0.0 1.6 0.00 0.00 0.00 92 1011.5
20260901053303 19 280 0.0 1.6 0.00 0.00 0.00 92 1011.4
20260901052803 19 281 0.0 0.0 0.00 0.00 0.00 92 1011.4
20260901052306 19 276 0.0 0.0 0.00 0.00 0.00 92 1011.2
20260901051804 19 274 0.0 0.0 0.00 0.00 0.00 92 1011.2
20260901051303 19 281 0.0 0.0 0.00 0.00 0.00 92 1011.2
20260901050812 19 281 0.0 1.6 0.00 0.00 0.00 92 1011.2
20260901050303 19 284 0.0 0.0 0.00 0.00 0.00 92 1011.0
20260901045804 20 284 0.0 1.6 0.00 0.00 0.00 90 1011.0
20260901044803 20 284 0.0 0.0 0.00 0.00 0.00 90 1010.9
20260901044304 20 284 0.0 0.0 0.00 0.00 0.00 90 1010.9
20260901043804 20 284 0.0 0.0 0.00 0.00 0.00 90 1010.9
20260901043303 20 285 0.0 0.0 0.00 0.00 0.00 90 1010.8
20260901042803 20 285 0.0 0.0 0.00 0.00 0.00 90 1010.8
20260901042306 20 286 0.0 0.0 0.00 0.00 0.00 90 1010.8
20260901041803 20 286 0.0 0.0 0.00 0.00 0.00 90 1010.8
20260901041304 20 286 0.0 0.0 0.00 0.00 0.00 90 1010.8
20260901040803 20 286 0.0 0.0 0.00 0.00 0.00 90 1010.9
20260901040303 20 285 0.0 0.0 0.00 0.00 0.00 90 1010.9
20260901035804 20 285 0.0 0.0 0.00 0.00 0.00 85 1010.8
20260901035305 20 285 0.0 0.0 0.00 0.00 0.00 85 1010.8
20260901034803 21 285 0.0 0.0 0.00 0.00 0.00 85 1010.8
20260901034304 21 285 0.0 0.0 0.00 0.00 0.00 85 1010.8
20260901033804 21 286 0.0 0.0 0.00 0.00 0.00 85 1010.8
20260901033303 21 286 0.0 0.0 0.00 0.00 0.00 85 1010.7
20260901032803 21 286 0.0 0.0 0.00 0.00 0.00 85 1010.7
20260901032306 21 286 0.0 0.0 0.00 0.00 0.00 85 1010.7
20260901031804 21 286 0.0 0.0 0.00 0.00 0.00 85 1010.7
20260901031303 21 286 0.0 1.6 0.00 0.00 0.00 85 1010.6
20260901030803 21 286 0.0 0.0 0.00 0.00 0.00 85 1010.6
20260901025804 22 286 0.0 0.0 0.00 0.00 0.00 85 1010.6
20260901025306 22 288 0.0 0.0 0.00 0.00 0.00 85 1010.5
20260901024803 22 286 0.0 3.2 0.00 0.00 0.00 85 1010.4
20260901023803 22 290 0.0 4.8 0.00 0.00 0.00 85 1010.4
20260901023304 22 286 0.0 4.8 0.00 0.00 0.00 85 1010.4
20260901022804 22 286 1.6 3.2 0.00 0.00 0.00 85 1010.3
20260901021804 23 286 1.6 3.2 0.00 0.00 0.00 85 1010.3
20260901020803 23 286 0.0 3.2 0.00 0.00 0.00 85 1010.3
20260901015803 23 286 1.6 3.2 0.00 0.00 0.00 80 1010.3
20260901014803 24 286 1.6 4.8 0.00 0.00 0.00 80 1010.2
20260901014304 24 286 0.0 3.2 0.00 0.00 0.00 80 1010.1
20260901013804 24 286 0.0 3.2 0.00 0.00 0.00 80 1010.0
20260901013303 24 286 0.0 3.2 0.00 0.00 0.00 80 1009.9
20260901012803 25 286 0.0 1.6 0.00 0.00 0.00 80 1009.9
20260901012306 25 286 0.0 1.6 0.00 0.00 0.00 80 1009.8
20260901011804 25 286 0.0 1.6 0.00 0.00 0.00 80 1009.7
20260901011304 25 286 0.0 1.6 0.00 0.00 0.00 80 1009.7
20260901010804 25 286 0.0 1.6 0.00 0.00 0.00 80 1009.6
20260901010304 26 286 0.0 3.2 0.00 0.00 0.00 80 1009.6
20260901005306 26 286 0.0 3.2 0.00 0.00 0.00 89 1009.6
20260901004804 26 286 0.0 1.6 0.00 0.00 0.00 89 1009.5
20260901004304 27 286 1.6 3.2 0.00 0.00 0.00 89 1009.4
20260901003804 27 286 0.0 1.6 0.00 0.00 0.00 89 1009.4
20260901003304 27 286 0.0 1.6 0.00 0.00 0.00 89 1009.3
20260901002803 28 286 0.0 1.6 0.00 0.00 0.00 89 1009.4
20260901002305 28 286 1.6 4.8 0.00 0.00 0.00 89 1009.4
20260901001804 29 282 1.6 4.8 0.00 0.00 0.00 89 1009.3
20260901000804 29 304 3.2 8.0 0.00 0.00 0.00 89 1009.2
20260901000304 29 305 3.2 4.8 0.00 0.00 0.00 89 1009.2
20260831235804 30 238 1.6 9.7 0.00 0.00 0.00 82 1009.2
20260831235306 30 302 1.6 4.8 0.00 0.00 0.00 82 1009.1
20260831234303 30 309 1.6 4.8 0.00 0.00 0.00 82 1009.2
20260831233804 30 262 0.0 3.2 0.00 0.00 0.00 82 1009.1
20260831232305 30 261 3.2 9.7 0.00 0.00 0.00 82 1008.9
20260831231304 30 309 1.6 4.8 0.00 0.00 0.00 82 1008.9
20260831230803 31 321 1.6 4.8 0.00 0.00 0.00 82 1009.0
20260831230303 31 265 3.2 11.3 0.00 0.00 0.00 80 1008.9
20260831225804 31 321 3.2 4.8 0.00 0.00 0.00 70 1008.7
20260831225306 31 341 1.6 11.3 0.00 0.00 0.00 70 1008.7
20260831224804 31 311 3.2 9.7 0.00 0.00 0.00 70 1008.6
20260831224304 31 336 3.2 4.8 0.00 0.00 0.00 70 1008.6
20260831223803 31 359 1.6 8.0 0.00 0.00 0.00 70 1008.6
20260831223303 31 60 1.6 4.8 0.00 0.00 0.00 70 1008.5
20260831222306 32 304 3.2 4.8 0.00 0.00 0.00 70 1008.4
20260831221803 32 180 4.8 12.9 0.00 0.00 0.00 70 1008.5
20260831221303 31 44 3.2 9.7 0.00 0.00 0.00 70 1008.6
20260831220803 31 254 1.6 11.3 0.00 0.00 0.00 70 1008.6
20260831220304 31 275 1.6 8.0 0.00 0.00 0.00 70 1008.6
20260831215804 31 215 1.6 8.0 0.00 0.00 0.00 78 1008.6
20260831215306 31 209 1.6 4.8 0.00 0.00 0.00 78 1008.6
20260831214804 30 332 0.0 0.0 0.00 0.00 0.00 78 1008.6
20260831214303 30 332 0.0 4.8 0.00 0.00 0.00 78 1008.5
20260831213803 30 265 0.0 4.8 0.00 0.00 0.00 78 1008.5
20260831213303 31 254 1.6 9.7 0.00 0.00 0.00 78 1008.4
20260831212803 31 285 4.8 11.3 0.00 0.00 0.00 78 1008.5
20260831212306 31 333 3.2 4.8 0.00 0.00 0.00 78 1008.4
20260831211803 31 298 4.8 9.7 0.00 0.00 0.00 78 1008.4
20260831211304 31 266 0.0 4.8 0.00 0.00 0.00 78 1008.4
20260831210303 31 84 1.6 4.8 0.00 0.00 0.00 80 1008.3
20260831205803 31 96 1.6 4.8 0.00 0.00 0.00 88 1008.3
20260831205305 30 323 0.0 4.8 0.00 0.00 0.00 88 1008.3
20260831204804 31 308 6.4 14.5 0.00 0.00 0.00 88 1008.3
20260831203303 30 319 1.6 12.9 0.00 0.00 0.00 88 1008.3
20260831202803 30 313 4.8 11.3 0.00 0.00 0.00 88 1008.3
20260831201803 30 324 3.2 9.7 0.00 0.00 0.00 88 1008.4
20260831201303 30 6 8.0 12.9 0.00 0.00 0.00 88 1008.4
20260831200803 30 285 4.8 11.3 0.00 0.00 0.00 88 1008.4
20260831200303 30 274 3.2 8.0 0.00 0.00 0.00 88 1008.4
20260831195804 30 117 0.0 1.6 0.00 0.00 0.00 88 1008.3
20260831195306 29 63 3.2 4.8 0.00 0.00 0.00 88 1008.4
20260831194303 28 39 1.6 3.2 0.00 0.00 0.00 88 1008.3
20260831193803 28 313 1.6 4.8 0.00 0.00 0.00 88 1008.3
20260831192803 29 330 1.6 3.2 0.00 0.00 0.00 88 1008.4
20260831192305 29 229 1.6 4.8 0.00 0.00 0.00 88 1008.4
20260831191804 28 310 0.0 1.6 0.00 0.00 0.00 88 1008.4
20260831191303 28 167 0.0 4.8 0.00 0.00 0.00 88 1008.4
20260831190804 28 167 1.6 4.8 0.00 0.00 0.00 88 1008.5
20260831185804 28 304 1.6 4.8 0.00 0.00 0.00 78 1008.5
20260831185306 28 229 0.0 4.8 0.00 0.00 0.00 78 1008.5
20260831184804 28 305 3.2 8.0 0.00 0.00 0.00 78 1008.5
20260831184303 28 306 3.2 4.8 0.00 0.00 0.00 78 1008.5
20260831183803 28 276 1.6 4.8 0.00 0.00 0.00 78 1008.4
20260831183304 28 297 3.2 4.8 0.00 0.00 0.00 78 1008.5
20260831182305 28 14 1.6 4.8 0.00 0.00 0.00 78 1008.6
20260831181304 28 298 3.2 8.0 0.00 0.00 0.00 78 1008.6
20260831180804 28 266 1.6 4.8 0.00 0.00 0.00 78 1008.6
20260831180304 28 274 3.2 4.8 0.00 0.00 0.00 78 1008.6
20260831175803 28 312 0.0 3.2 0.00 0.00 0.00 80 1008.5
20260831175306 28 312 1.6 8.0 0.00 0.00 0.00 80 1008.6
20260831174803 28 301 3.2 4.8 0.00 0.00 0.00 80 1008.6
20260831174303 27 269 3.2 4.8 0.00 0.00 0.00 80 1008.6
20260831173803 27 269 0.0 4.8 0.00 0.00 0.00 80 1008.5
20260831173303 27 269 1.6 4.8 0.00 0.00 0.00 80 1008.5
20260831172803 27 324 0.0 1.6 0.00 0.00 0.00 80 1008.5
20260831172306 27 324 3.2 4.8 0.00 0.00 0.00 80 1008.6
20260831171304 27 344 1.6 4.8 0.00 0.00 0.00 80 1008.7
20260831170304 27 309 3.2 8.0 0.00 0.00 0.00 80 1008.7
20260831165804 27 268 0.0 4.8 0.00 0.00 0.00 82 1008.8